sat.trackr.live / text

‹ back to catalog

STARLINK-33613

NORAD 63286 · 2025-053X

PAYLOAD ACTIVE UNKNOWN

§ Identity

Operator
Country
US
Launch date
2025-03-15
Launch site
AFETR
Launch vehicle
Mass (kg)
RCS (m²)

Purposes: comms

External: N2YO · Heavens-Above · Gunter

§ Orbital elements

Epoch: 2026-09-20T07:03:16.612992Z

Period
94.27 min
Inclination
43.0007°
Eccentricity
0.0001680
Mean motion
15.27603914 rev/d
Perigee alt
481.8 km
Apogee alt
484.1 km
Semi-major
6,861.1 km
B*
7.5585e-4
RAAN
222.9343°
Arg perigee
272.4482°
Mean anomaly
87.6177°
Rev number
8,595

§ Raw data

STARLINK-336131 63286U 25053X   26263.29394228  .00020611  00000+0  75585-3 0  99902 63286  43.0007 222.9343 0001680 272.4482  87.6177 15.27603914 85951

JSON: /api/v1/satellites/63286 · /tle

For live sub-satellite position, see the globe view (requires WebGL).

§ Visibility from observer

Set your observer location to see the next 7 days of passes ≥ 10°. The values pass through the URL so the page stays shareable.

No JS? Fill the form by hand. The geolocation button needs JavaScript.